Location: Dehesa de la Cepeda
(40.6574°N, 4.3013°W)
Time: 09:07:48
(UTC+00:00)

Atlas Centaur 2 - Pass Details

Date: 05 July 2020
Orbit: 459 x 1310 km, 30.4° (Epoch: 08 August)

Event Time Altitude Azimuth Distance (km) Brightness Sun altitude
Rises 22:12:40 0° 256° (WSW) 3,387 5.6 -19.9°
Reaches altitude 10° 22:15:14 10° 247° (WSW) 2,586 4.8 -20.2°
Maximum altitude 22:20:49 33° 185° (S) 1,690 3.3 -20.7°
Enters shadow 22:21:23 32° 176° (S) 1,721 3.3 -20.7°
